Precipitable_Water
0.60 0.60 0.59 0.57 0.56 0.59 0.57 0.45 0.26 0.55 0.57 0.31 0.34 0.29 0.34 0.42 0.43 0.48 0.48 0.49 0.46 0.45 0.46 0.45 0.44 0.43 0.47 0.53 0.50 0.41 0.44 0.38 0.29 0.32 0.37 0.37 0.34 0.30 0.29 0.21 0.18 0.22 0.20 0.17
0.66 0.65 0.61 0.59 0.59 0.60 0.53 0.37 0.37 0.56 0.53 0.26 0.29 0.33 0.35 0.42 0.43 0.44 0.46 0.47 0.50 0.50 0.47 0.43 0.47 0.48 0.56 0.57 0.50 0.43 0.45 0.37 0.29 0.31 0.33 0.36 0.32 0.30 0.29 0.27 0.26 0.19 0.18 0.17
0.73 0.69 0.64 0.61 0.60 0.64 0.57 0.39 0.26 0.41 0.45 0.43 0.34 0.32 0.34 0.37 0.48 0.47 0.49 0.50 0.51 0.49 0.48 0.51 0.47 0.49 0.55 0.57 0.54 0.56 0.51 0.41 0.36 0.30 0.33 0.36 0.30 0.28 0.27 0.24 0.18 0.19 0.19 0.21
0.77 0.73 0.68 0.65 0.62 0.63 0.55 0.42 0.32 0.41 0.31 0.37 0.39 0.39 0.37 0.37 0.40 0.49 0.51 0.49 0.50 0.50 0.45 0.48 0.48 0.52 0.53 0.57 0.59 0.55 0.49 0.37 0.39 0.40 0.39 0.35 0.28 0.24 0.23 0.22 0.24 0.20 0.18 0.21
0.76 0.75 0.72 0.68 0.64 0.63 0.47 0.35 0.35 0.43 0.38 0.41 0.40 0.41 0.39 0.40 0.43 0.48 0.48 0.49 0.54 0.54 0.49 0.51 0.49 0.53 0.53 0.52 0.54 0.51 0.50 0.39 0.39 0.33 0.35 0.29 0.22 0.22 0.23 0.22 0.21 0.21 0.22 0.22
0.80 0.79 0.75 0.71 0.68 0.64 0.45 0.45 0.47 0.48 0.41 0.39 0.38 0.40 0.43 0.45 0.50 0.52 0.56 0.56 0.54 0.51 0.54 0.58 0.59 0.61 0.61 0.60 0.54 0.50 0.45 0.41 0.35 0.28 0.32 0.27 0.18 0.21 0.21 0.22 0.23 0.23 0.20 0.24
0.96 0.92 0.86 0.78 0.73 0.69 0.58 0.53 0.52 0.44 0.32 0.39 0.40 0.48 0.51 0.51 0.52 0.51 0.58 0.59 0.55 0.60 0.70 0.69 0.66 0.63 0.60 0.59 0.57 0.55 0.44 0.39 0.36 0.28 0.26 0.15 0.21 0.27 0.27 0.24 0.24 0.27 0.27 0.28
1.04 1.01 0.97 0.91 0.86 0.83 0.73 0.71 0.58 0.47 0.34 0.42 0.45 0.50 0.54 0.57 0.59 0.57 0.57 0.62 0.65 0.70 0.66 0.55 0.48 0.47 0.45 0.45 0.45 0.44 0.46 0.40 0.32 0.24 0.20 0.21 0.22 0.25 0.23 0.22 0.21 0.26 0.26 0.27
1.08 1.06 1.02 0.99 0.98 0.94 0.86 0.78 0.79 0.66 0.49 0.42 0.57 0.56 0.58 0.54 0.56 0.59 0.63 0.72 0.75 0.71 0.60 0.52 0.39 0.35 0.39 0.38 0.39 0.45 0.41 0.40 0.30 0.25 0.19 0.17 0.22 0.26 0.28 0.27 0.18 0.27 0.27 0.29
1.12 1.09 1.11 1.11 1.08 1.04 0.97 0.86 0.91 0.78 0.57 0.62 0.65 0.60 0.58 0.68 0.64 0.58 0.62 0.65 0.65 0.68 0.55 0.46 0.40 0.38 0.45 0.36 0.35 0.34 0.32 0.30 0.26 0.25 0.22 0.23 0.28 0.29 0.30 0.18 0.20 0.31 0.33 0.29
1.13 1.13 1.08 1.16 1.14 1.12 1.06 0.93 1.03 0.87 0.70 0.73 0.76 0.79 0.69 0.71 0.68 0.58 0.64 0.62 0.60 0.58 0.49 0.47 0.45 0.42 0.42 0.39 0.39 0.35 0.30 0.28 0.26 0.25 0.22 0.18 0.30 0.28 0.24 0.28 0.35 0.35 0.30 0.27
1.05 1.06 1.07 1.08 1.10 1.12 1.13 0.90 1.06 1.07 0.82 0.76 0.88 0.88 0.88 0.85 0.83 0.75 0.71 0.67 0.63 0.62 0.53 0.52 0.49 0.43 0.42 0.40 0.34 0.41 0.31 0.33 0.27 0.27 0.24 0.30 0.32 0.31 0.35 0.37 0.33 0.30 0.28 0.28
1.04 1.05 1.05 1.05 1.06 1.07 1.04 0.94 0.98 0.95 0.80 0.75 0.76 0.72 0.84 0.92 0.90 0.92 0.68 0.70 0.72 0.66 0.69 0.59 0.53 0.44 0.47 0.38 0.37 0.37 0.39 0.39 0.30 0.30 0.31 0.31 0.33 0.34 0.34 0.33 0.30 0.29 0.29 0.27
1.08 1.06 1.06 1.06 1.05 1.04 1.03 0.94 1.01 0.94 0.80 0.65 0.64 0.82 0.75 0.84 0.87 0.85 0.84 0.77 0.78 0.74 0.69 0.58 0.52 0.46 0.52 0.42 0.41 0.38 0.40 0.37 0.32 0.30 0.30 0.32 0.32 0.31 0.31 0.30 0.29 0.29 0.28 0.27
1.02 1.06 1.06 1.07 1.08 1.05 1.04 1.01 1.00 0.99 0.80 0.60 0.61 0.71 0.74 0.80 0.82 0.80 0.80 0.76 0.70 0.64 0.57 0.53 0.48 0.52 0.48 0.46 0.43 0.37 0.39 0.33 0.28 0.25 0.30 0.29 0.28 0.30 0.30 0.28 0.28 0.27 0.27 0.26
0.95 0.97 1.00 1.04 1.06 1.06 0.96 0.78 0.94 0.99 0.93 0.70 0.55 0.66 0.65 0.73 0.75 0.73 0.71 0.70 0.66 0.63 0.56 0.51 0.52 0.55 0.48 0.38 0.33 0.37 0.36 0.35 0.34 0.29 0.32 0.31 0.29 0.29 0.30 0.28 0.28 0.27 0.26 0.24
0.84 0.85 0.91 0.97 1.00 0.96 0.80 0.73 0.85 0.97 0.93 0.67 0.54 0.51 0.58 0.64 0.65 0.65 0.63 0.65 0.61 0.58 0.52 0.48 0.47 0.45 0.45 0.37 0.31 0.35 0.33 0.32 0.31 0.31 0.29 0.27 0.28 0.27 0.29 0.29 0.28 0.26 0.24 0.23
0.81 0.80 0.80 0.85 0.92 0.89 0.78 0.86 0.90 0.91 0.75 0.68 0.50 0.46 0.48 0.57 0.51 0.51 0.59 0.53 0.54 0.51 0.47 0.46 0.40 0.40 0.40 0.31 0.33 0.32 0.31 0.30 0.29 0.29 0.30 0.30 0.30 0.30 0.28 0.27 0.25 0.22 0.21 0.21
0.77 0.81 0.81 0.72 0.70 0.67 0.71 0.82 0.82 0.83 0.70 0.52 0.50 0.43 0.39 0.54 0.50 0.50 0.48 0.48 0.38 0.44 0.37 0.36 0.36 0.33 0.28 0.29 0.29 0.28 0.29 0.28 0.29 0.30 0.30 0.30 0.28 0.26 0.25 0.23 0.22 0.21 0.20 0.20
0.76 0.71 0.60 0.53 0.61 0.72 0.75 0.69 0.60 0.61 0.61 0.57 0.46 0.48 0.39 0.45 0.44 0.42 0.39 0.39 0.35 0.31 0.33 0.36 0.29 0.26 0.30 0.29 0.29 0.30 0.30 0.31 0.31 0.28 0.26 0.26 0.23 0.23 0.22 0.22 0.21 0.20 0.19 0.17
0.64 0.54 0.50 0.59 0.69 0.63 0.56 0.47 0.45 0.46 0.41 0.47 0.47 0.45 0.40 0.46 0.38 0.37 0.41 0.35 0.33 0.25 0.26 0.26 0.23 0.22 0.25 0.28 0.29 0.31 0.31 0.31 0.30 0.28 0.26 0.25 0.24 0.23 0.21 0.20 0.19 0.18 0.16 0.15
0.62 0.58 0.61 0.58 0.52 0.46 0.40 0.37 0.40 0.38 0.36 0.41 0.39 0.39 0.42 0.44 0.47 0.38 0.37 0.31 0.31 0.23 0.29 0.24 0.20 0.22 0.26 0.28 0.29 0.30 0.30 0.28 0.26 0.26 0.25 0.24 0.23 0.22 0.20 0.17 0.16 0.16 0.17 0.17
0.61 0.53 0.45 0.42 0.39 0.31 0.31 0.27 0.30 0.31 0.35 0.37 0.37 0.35 0.40 0.42 0.41 0.35 0.33 0.27 0.24 0.28 0.23 0.20 0.20 0.23 0.27 0.29 0.29 0.28 0.27 0.26 0.25 0.25 0.24 0.23 0.20 0.19 0.16 0.16 0.17 0.18 0.18 0.18
0.44 0.36 0.30 0.31 0.30 0.32 0.32 0.30 0.30 0.33 0.34 0.35 0.37 0.35 0.34 0.36 0.32 0.31 0.25 0.26 0.25 0.19 0.17 0.17 0.20 0.25 0.28 0.29 0.28 0.26 0.24 0.24 0.24 0.23 0.21 0.18 0.17 0.17 0.17 0.17 0.18 0.18 0.17 0.18
0.39 0.38 0.26 0.27 0.33 0.33 0.33 0.34 0.33 0.35 0.36 0.34 0.32 0.32 0.31 0.28 0.26 0.26 0.23 0.20 0.17 0.18 0.17 0.19 0.23 0.26 0.27 0.26 0.25 0.24 0.24 0.23 0.22 0.18 0.17 0.17 0.16 0.16 0.17 0.18 0.18 0.18 0.18 0.18
0.38 0.35 0.29 0.29 0.28 0.30 0.33 0.33 0.33 0.37 0.36 0.35 0.31 0.26 0.23 0.23 0.23 0.20 0.19 0.17 0.16 0.17 0.21 0.23 0.26 0.26 0.26 0.25 0.24 0.23 0.22 0.19 0.17 0.17 0.16 0.16 0.16 0.17 0.17 0.18 0.18 0.18 0.18 0.18
0.33 0.29 0.31 0.28 0.29 0.29 0.32 0.34 0.35 0.38 0.33 0.27 0.28 0.23 0.21 0.24 0.20 0.18 0.20 0.18 0.20 0.22 0.24 0.27 0.28 0.26 0.24 0.23 0.22 0.20 0.17 0.17 0.17 0.16 0.16 0.17 0.18 0.18 0.17 0.16 0.17 0.18 0.18 0.19
Wind_Speed
23 22 20 19 17 16 15 14 12 12 11 10 9 8 8 8 9 10 10 10 11 12 13 14 15 15 16 16 17 18 18 19 21 22 23 22 20 24 23 23 25 24 26 33
24 23 21 20 18 16 16 15 15 13 12 10 9 10 10 10 10 11 11 12 13 14 15 16 15 16 18 18 18 17 19 20 24 24 21 23 24 25 26 25 26 25 26 28
26 24 22 21 19 17 16 15 15 14 12 11 10 11 11 11 12 12 12 13 14 15 16 16 17 19 18 19 20 21 22 21 21 22 25 26 29 27 26 25 26 29 30 37
28 26 24 23 21 19 18 16 16 15 14 14 13 13 13 13 14 14 14 15 16 16 17 19 20 19 21 21 22 21 21 24 24 28 28 29 33 33 29 27 28 28 35 33
29 28 26 25 23 21 19 18 17 16 16 16 15 15 16 16 15 14 16 17 17 18 19 20 22 22 22 23 22 22 23 25 26 29 28 29 30 31 27 28 30 31 34 37
30 29 28 27 25 23 21 20 19 18 18 17 16 18 18 18 17 18 18 19 19 21 23 23 24 25 26 26 25 24 24 25 26 28 28 33 31 26 26 28 27 28 30 31
33 31 29 28 27 26 23 22 21 20 21 20 20 20 20 20 21 21 21 21 21 23 23 26 27 27 27 27 27 26 24 24 25 29 30 26 27 30 30 29 31 30 32 33
35 34 33 31 29 28 26 25 24 23 23 23 22 23 22 22 23 23 24 24 24 25 25 26 28 26 26 24 23 21 23 23 25 25 27 34 30 27 27 30 32 32 31 32
38 37 36 35 34 32 30 29 28 26 25 26 25 24 25 25 24 24 25 25 26 26 26 25 26 25 25 22 23 23 22 23 23 25 27 29 29 28 30 31 33 30 32 35
40 40 40 39 38 37 35 32 32 30 30 29 26 26 26 25 25 26 25 25 26 26 26 26 26 26 25 25 23 22 22 24 26 27 29 32 31 28 29 29 33 33 36 37
38 38 39 39 40 40 39 36 35 34 33 33 31 30 28 28 28 28 27 26 26 26 26 26 27 26 26 24 24 23 24 23 26 25 27 31 27 29 30 32 34 37 37 36
38 37 37 36 37 38 41 39 37 36 35 33 31 31 31 30 30 29 29 29 27 25 25 26 26 26 26 26 27 26 27 26 26 26 29 32 32 33 34 36 36 36 35 35
38 36 36 35 35 36 38 37 35 33 33 33 33 32 32 31 31 31 29 30 28 28 28 28 27 28 26 27 28 28 29 29 30 32 32 32 32 34 35 35 34 34 34 35
38 37 35 33 31 31 33 32 32 32 30 30 31 30 29 30 30 30 29 29 28 28 28 28 28 28 28 29 30 31 31 29 32 34 34 34 34 33 33 33 33 34 34 33
37 36 34 33 32 30 28 29 30 31 29 26 26 28 30 30 29 28 28 28 27 26 27 28 29 29 31 32 33 33 31 31 30 32 32 32 32 32 33 32 33 33 33 32
36 35 34 33 32 31 30 29 29 29 27 27 28 29 29 28 27 26 25 26 27 27 28 29 30 31 30 31 32 30 29 30 31 32 32 32 31 31 31 31 31 32 31 30
35 35 34 33 31 30 30 29 29 29 29 28 28 28 28 28 29 28 28 28 28 28 29 30 30 30 31 32 31 30 30 30 30 30 29 30 30 30 30 30 30 30 29 28
33 33 32 33 31 30 30 29 26 26 27 28 28 29 27 27 26 26 27 27 27 28 29 29 29 29 29 30 29 29 28 28 28 28 28 28 28 28 29 28 28 27 27 28
32 31 31 32 33 33 32 32 31 30 30 29 29 29 28 27 26 26 26 26 25 27 28 28 27 28 28 28 28 28 27 27 27 27 27 27 27 27 27 26 26 26 28 29
31 30 30 30 30 29 29 30 29 30 32 32 32 29 27 27 26 25 24 26 25 26 27 26 27 29 28 27 27 26 26 25 25 25 26 25 25 25 25 25 26 27 29 30
30 29 29 28 28 28 28 27 28 28 29 29 29 28 26 27 25 24 24 23 24 25 26 25 27 27 24 24 23 22 22 23 23 23 23 23 23 24 25 26 27 28 30 31
30 28 27 27 27 26 27 28 28 28 28 27 25 25 25 25 25 23 24 24 24 26 24 25 25 24 22 21 20 20 21 21 21 21 22 22 23 24 26 27 28 28 30 31
26 26 25 26 28 28 30 30 29 27 27 26 25 24 23 23 24 24 23 23 25 24 24 24 23 21 20 18 18 19 20 19 20 21 22 23 24 25 25 26 27 29 30 31
26 25 25 27 25 28 29 27 27 27 26 24 23 23 23 23 23 23 22 23 22 22 22 22 21 19 17 17 18 18 19 20 20 21 22 23 24 24 24 26 27 28 30 31
25 25 26 27 27 26 25 27 27 27 26 25 23 23 23 22 21 21 20 20 22 21 20 19 17 16 15 16 18 18 19 20 21 22 22 22 22 23 24 26 28 29 30 31
23 23 23 24 24 26 25 24 23 23 22 21 20 20 20 20 19 18 20 18 20 19 18 16 14 13 15 16 17 18 19 20 21 21 20 21 21 23 25 27 28 29 30 29
22 22 22 21 20 20 20 21 22 22 22 22 21 20 20 17 16 17 17 18 17 15 14 13 13 13 14 15 18 19 20 19 19 19 19 20 22 23 25 27 28 29 28 26
Wind_Direction
241 244 249 254 261 270 264 263 265 276 281 290 292 295 294 297 298 301 303 305 308 309 312 314 312 310 310 311 316 319 320 321 319 320 324 324 325 326 325 326 322 319 320 319
241 243 247 251 257 263 260 259 262 270 273 274 282 287 295 298 298 297 299 302 306 310 312 315 311 311 314 310 312 313 316 319 322 327 328 327 323 322 320 322 323 316 317 318
239 242 245 248 253 258 256 257 263 268 272 270 274 282 288 292 298 298 298 301 304 307 310 309 310 310 310 309 308 311 311 310 308 310 314 319 316 317 317 316 317 315 305 309
239 241 243 246 250 254 253 257 257 258 266 274 277 283 283 287 289 294 293 300 297 302 306 307 305 307 308 309 309 309 307 306 305 307 310 311 309 310 311 306 304 309 314 314
240 241 242 244 247 250 250 252 254 260 264 270 274 282 279 280 287 287 291 291 294 295 298 299 303 306 305 303 307 304 305 307 310 309 312 314 313 313 312 310 310 309 309 311
238 240 242 243 244 246 248 251 254 258 265 268 272 276 278 281 283 286 289 289 294 296 297 303 304 303 303 303 301 298 301 305 309 309 317 316 317 320 320 320 317 317 316 318
238 240 241 242 243 244 247 250 253 258 263 264 269 275 276 280 282 285 289 289 292 297 299 301 304 304 303 301 297 295 298 301 305 309 317 315 319 320 319 317 318 316 317 317
239 240 241 242 242 243 247 250 254 258 263 264 271 273 275 282 284 284 287 289 293 295 299 301 305 305 305 305 304 301 295 300 304 308 310 312 319 319 320 320 319 319 318 318
240 241 242 242 243 244 248 251 253 258 263 266 270 273 274 277 281 285 286 290 291 293 295 298 298 300 303 302 303 306 303 301 301 309 309 311 317 316 318 319 317 319 320 318
240 242 243 244 245 245 248 252 252 258 264 267 267 270 274 274 279 284 288 288 289 291 293 293 294 296 298 298 298 300 303 303 299 302 305 309 311 313 316 318 317 317 317 316
241 242 244 245 245 245 246 252 252 256 263 266 267 268 274 274 277 280 284 288 289 290 289 291 294 294 294 297 296 297 297 300 303 307 308 308 311 313 309 312 314 314 315 315
240 242 244 245 247 246 247 252 252 255 260 267 270 268 273 274 277 279 280 284 288 286 291 291 294 293 294 293 296 297 298 296 302 298 303 307 307 308 309 310 312 313 313 314
240 242 244 247 247 249 247 250 249 251 257 265 266 269 272 274 277 278 278 280 282 285 288 289 289 289 291 292 293 295 297 297 297 303 304 303 304 306 307 309 311 312 313 314
239 240 241 242 246 246 246 247 246 251 257 260 266 269 273 277 278 277 278 279 280 282 283 285 287 288 289 292 294 294 296 296 297 298 300 302 303 305 307 309 310 311 312 312
238 238 239 241 242 246 245 246 246 248 251 261 266 269 273 276 277 276 278 276 279 280 280 283 286 288 290 291 293 294 292 293 294 297 301 301 303 305 307 308 309 310 311 313
235 237 239 240 240 240 245 248 248 249 253 258 265 270 273 276 277 277 278 278 280 281 283 284 287 288 287 290 292 294 294 295 296 297 299 302 303 305 307 308 309 310 311 313
235 237 239 238 239 241 243 248 253 249 255 262 266 270 274 274 275 277 279 281 281 282 283 284 285 285 286 289 290 293 292 294 297 298 300 302 302 304 307 308 309 310 311 312
236 237 237 236 238 240 246 249 250 251 257 262 264 269 271 275 277 280 283 281 282 284 285 286 285 287 286 289 291 291 292 294 297 299 302 303 304 305 307 308 310 311 312 313
234 234 236 240 243 246 250 250 252 254 258 262 263 264 270 272 277 281 282 282 282 286 285 284 285 287 285 289 289 288 290 293 295 298 301 303 304 305 307 309 311 311 312 313
231 236 242 244 245 245 248 252 255 258 259 261 263 266 268 271 275 278 280 282 282 284 285 287 286 289 289 289 290 289 291 294 297 299 300 302 303 305 307 309 310 311 312 314
234 240 244 244 243 246 250 252 254 257 261 262 262 264 266 268 271 274 276 279 283 286 287 286 289 291 291 288 290 291 293 296 300 301 302 303 304 305 308 309 311 312 313 315
237 238 238 240 244 248 248 251 255 257 260 263 264 265 265 267 269 271 274 278 281 282 286 287 290 291 289 287 290 293 296 299 301 302 302 304 306 307 309 310 311 313 315 315
230 237 242 244 246 245 246 250 257 260 259 260 262 263 263 266 269 273 273 275 276 283 284 286 288 289 288 288 291 296 299 300 300 302 305 307 307 309 310 311 314 316 316 318
237 239 241 242 244 249 249 252 255 258 259 255 258 261 265 268 269 270 274 277 279 281 284 284 288 285 286 290 294 296 297 300 302 304 307 308 309 310 312 315 316 318 319 320
238 241 242 244 248 252 254 254 256 259 255 254 257 263 266 269 269 272 273 278 277 278 283 286 287 284 286 291 295 297 299 301 304 305 307 308 310 312 314 317 318 319 320 320
237 243 250 253 252 254 253 254 255 255 249 249 257 261 267 267 267 270 267 271 275 281 281 283 281 283 291 295 297 299 300 302 303 305 307 309 311 313 316 318 320 321 321 322
241 250 253 252 251 251 251 252 252 249 247 254 259 258 261 264 270 272 271 273 277 276 277 277 281 287 293 298 301 302 302 303 304 306 308 310 313 316 319 321 322 323 323 323